Location: ??????????
(44.3500°N, 135.7333°E)
Time: 14:03:25
(UTC+00:00)

Daily predictions for brighter satellites

Satellite Brightness Start Highest point End
(mag) Time Altitude Azimuth Time Altitude Azimuth Time Altitude Azimuth
CZ-4 R/B 3.9 12:01:29 10° WSW 12:03:19 13° W 12:05:09 10° WNW
CZ-4B R/B 2.6 12:05:03 47° ESE 12:05:35 53° ENE 12:08:53 10° N
Cosmos 1782 2.3 12:09:48 43° S 12:10:52 86° E 12:14:24 10° N
Cosmos 2233 Rocket 3.9 12:08:45 20° S 12:13:09 74° E 12:19:19 10° NNE
Ariane Rocket 3.1 12:12:01 34° SE 12:14:01 59° ENE 12:19:00 10° N
Cosmos 2369 4.2 12:08:53 10° NNW 12:14:25 48° ENE 12:16:52 30° ESE
SL-08 R/B 4.5 12:10:00 16° S 12:15:08 87° E 12:21:31 10° N
Cosmos 1607 3.8 12:09:45 10° SSW 12:15:48 68° ESE 12:22:01 10° NE
Cosmos 2082 Rocket 2.2 12:12:23 19° S 12:16:24 61° ESE 12:22:02 10° NNE
Cosmos 2322 Rocket 4.3 12:13:38 10° N 12:16:57 16° NE 12:20:16 10° E
Cosmos 44 Rocket 3.7 12:12:50 10° SW 12:17:52 70° NW 12:23:03 10° NNE
Spot 2 Rocket 4.3 12:16:41 18° SSW 12:20:06 46° W 12:24:56 10° NNW
ATLAS 3B R/B 3.2 12:12:48 10° NW 12:20:25 62° WSW 12:24:34 27° S
Tsikada Rocket 3.9 12:15:23 10° N 12:21:35 81° E 12:24:41 32° SSE
CZ-4C R/B 2.4 12:18:44 10° SW 12:22:46 54° NW 12:27:56 10° NNE
Cosmos 1725 Rocket 4.3 12:17:34 10° SSW 12:23:48 65° W 12:30:03 10° N
BREEZE-M DEB (TANK) 3.8 12:23:56 10° WNW 12:27:22 61° SSW 12:30:42 32° SE
BREEZE-M DEB (TANK) 4.4 12:10:33 10° WSW 12:29:02 89° NNW 12:34:25 10° ENE
USA 305 3.7 12:34:33 10° NW 12:38:16 34° NNE 12:38:58 31° NE
COSMOS 2406 3.5 12:37:43 42° SE 12:38:29 44° ESE 12:43:54 10° NE
Cosmos 1697 Rocket 4.3 12:35:18 10° NW 12:39:51 26° WSW 12:43:13 15° SSW
DELTA 2 R/B (1) 4.1 12:35:05 10° SW 12:39:20 37° S 12:39:20 37° S
NOSS 3-3 (A) 3.5 12:38:17 33° SSW 12:40:35 67° ESE 12:46:30 10° NE
Meteor 1-20 Rocket 4.4 12:36:31 10° N 12:41:59 57° ENE 12:43:25 44° SE
SL-16 R/B 3.2 12:38:45 10° NNW 12:43:58 36° NE 12:45:49 29° E
CZ-2C R/B 3.3 12:45:27 38° NNW 12:45:27 38° NNW 12:47:20 10° NNW
Cosmos 1743 4.2 12:45:06 10° NW 12:47:25 20° W 12:47:43 20° W
Cosmos 1992 Rocket 3.8 12:46:09 47° S 12:47:36 74° ESE 12:52:48 10° NNE
ISS -3.1 12:45:40 10° WSW 12:48:57 54° NNW 12:49:09 53° N
Cosmos 2061 Rocket 4.1 12:45:24 24° SSW 12:49:17 72° W 12:55:33 10° N
Cosmos 2151 2.9 12:48:36 10° N 12:52:36 63° ENE 12:52:36 63° ENE
Okean O Rocket 3.7 12:51:18 13° SW 12:53:37 19° W 12:56:45 10° NW
Cosmos 1626 Rocket 3.4 12:50:29 10° N 12:54:50 86° W 12:55:12 74° S
Cosmos 2333 Rocket 3.1 12:50:41 10° NNW 12:56:01 39° NE 12:57:39 32° E
Cosmos 2228 4.3 12:54:40 23° SW 12:56:34 35° WNW 13:00:23 10° N
Cosmos 1437 Rocket 3.5 12:58:59 40° NNE 12:58:59 40° NNE 13:01:25 10° NNE
SL-4 R/B 3.9 12:55:34 10° W 12:57:33 18° WSW 12:57:33 18° WSW
Meteor 1-25 Rocket 4.3 12:54:27 10° N 13:00:06 61° ENE 13:01:10 51° ESE
CZ-4B R/B 4.0 12:59:54 37° SW 13:01:07 46° W 13:05:43 10° NNW
Cosmos 909 Rocket 4.0 12:55:25 10° SW 13:01:50 81° NW 13:08:15 10° NNE
Okean 1-7 Rocket 4.5 12:59:22 10° N 13:03:17 37° ENE 13:03:17 37° ENE
Cosmos 1980 Rocket 3.3 13:02:55 10° NW 13:08:02 35° WSW 13:09:48 29° SW
NOSS 3-3 (C) 3.5 13:06:17 41° SSW 13:08:14 88° SE 13:14:21 10° NE
Cosmos 1606 Rocket 4.5 13:11:05 36° ENE 13:11:05 36° ENE 13:14:17 10° NNE
Cosmos 1464 Rocket 4.0 13:10:09 52° SE 13:11:13 60° E 13:17:16 10° NNE
BREEZE-M DEB 3.9 13:10:44 10° WSW 13:15:15 66° SSE 13:23:42 10° ENE
Cosmos 1513 Rocket 4.4 13:13:27 48° S 13:15:24 88° W 13:21:38 10° N
Helios 1A 3.6 13:11:40 10° NNE 13:14:29 42° NE 13:14:29 42° NE
Cosmos 2098 Rocket 3.3 13:22:23 78° SE 13:22:34 79° E 13:27:21 10° N
NOSS 3-4 (A) 4.5 13:18:57 10° NNW 13:25:22 47° NE 13:29:02 28° E
NOSS 3-4 (C) 4.5 13:19:33 10° NNW 13:25:59 47° NE 13:29:41 28° E
Cosmos 1072 Rocket 4.4 13:24:53 58° S 13:26:15 85° E 13:32:34 10° N
Gbstr 26 Del rocket 4.3 13:28:02 10° WNW 13:30:58 31° W 13:30:58 31° W
Cosmos 1076 Rocket 4.4 13:28:47 10° N 13:32:07 39° NE 13:32:07 39° NE
Cosmos 2360 Rocket 2.8 13:29:12 10° NNW 13:34:39 45° ENE 13:35:37 41° E
Meteor 2-10 4.1 13:35:53 10° N 13:41:38 85° ENE 13:42:08 76° SSE
USA 234 3.1 13:37:26 10° NE 13:44:01 77° SE 13:46:23 43° SW
Cosmos 2034 Rocket 3.9 13:44:06 64° SE 13:44:56 73° E 13:51:17 10° NNE
Cosmos 1428 Rocket 4.3 13:41:47 10° N 13:48:04 90° WNW 13:48:55 69° S
Cosmos 2219 Rocket 3.0 13:47:06 10° NNW 13:52:25 40° ENE 13:53:26 36° E
ALOS 2 3.5 13:59:36 43° NE 13:59:36 43° NE 14:03:07 10° N
ARIANE 5 R/B 3.2 14:00:23 51° NNE 14:00:23 51° NNE 14:04:01 10° N
Helios 1B rocket 3.9 14:02:05 28° NNW 14:02:05 28° NNW 14:03:57 10° NNW
Cosmos 2082 Rocket 4.2 13:56:17 10° WSW 14:00:53 25° NW 14:05:31 10° N
Cosmos 2322 Rocket 2.1 13:56:16 10° NNW 14:01:57 78° ENE 14:02:10 76° E
Cosmos 540 Rocket 4.0 14:05:03 48° ENE 14:05:03 48° ENE 14:09:07 10° NNE
Cosmos 2058 Rocket 4.1 14:06:12 38° NE 14:06:12 38° NE 14:09:09 10° NNE
Cosmos 1825 Rocket 4.3 14:00:59 10° NNW 14:04:22 48° NW 14:04:22 48° NW
Cosmos 1953 Rocket 4.2 14:02:21 10° N 14:05:44 52° N 14:05:44 52° N
CZ-2C R/B 4.2 14:06:32 10° NNE 14:10:05 57° N 14:10:05 57° N
Cosmos 1634 Rocket 3.9 14:14:39 68° ESE 14:14:56 69° E 14:21:05 10° NNE
Nadezhda 4 Rocket 4.5 14:13:32 10° NNW 14:19:19 46° W 14:20:06 43° WSW
Cosmos 2279 Rocket 4.3 14:19:08 52° E 14:19:22 52° E 14:25:25 10° NNE
Cosmos 2278 4.0 14:15:01 10° NNW 14:20:20 55° W 14:20:20 55° W
Cosmos 1763 Rocket 3.5 14:26:18 77° N 14:26:18 77° N 14:31:16 10° NNE
CZ-2C R/B 3.8 14:21:55 10° NNE 14:27:04 46° E 14:27:04 46° E
SL-16 R/B 3.1 14:22:51 10° NW 14:27:39 37° W 14:27:39 37° W
Cosmos 1503 Rocket 4.2 14:23:18 10° NNW 14:27:52 64° WNW 14:27:52 64° WNW
Cosmos 1777 Rocket 4.5 14:24:08 10° NNW 14:28:36 50° WNW 14:28:36 50° WNW
Cosmos 990 Rocket 4.1 14:28:13 10° NNW 14:32:51 72° NNW 14:32:51 72° NNW
Meteor 2-6 Rocket 4.3 14:35:45 71° E 14:35:45 71° E 14:41:41 10° NNE
Meteor 2-2 Rocket 4.2 14:36:18 78° W 14:36:19 78° W 14:42:03 10° N
Cosmos 1354 Rocket 4.1 14:33:13 10° NNW 14:37:56 71° NNW 14:37:56 71° NNW
ARGOS Delta rocket 4.1 14:34:21 10° N 14:38:58 73° NNW 14:38:58 73° NNW
Cosmos 2333 Rocket 3.3 14:35:08 10° NW 14:39:39 33° W 14:39:39 33° W
Cosmos 2026 Rocket 4.3 14:37:59 10° NNW 14:44:08 53° W 14:44:40 52° WSW
Cosmos-2242 4.3 14:46:11 35° NW 14:46:11 35° NW 14:49:02 10° N
SeaSat 1 3.2 14:45:54 45° ENE 14:46:11 45° NE 14:50:51 10° NNW
Cosmos 1833 4.3 14:48:03 66° W 14:48:18 67° WNW 14:53:57 10° NNE
CZ-2C R/B 2.9 14:49:10 56° ENE 14:49:13 56° ENE 14:54:23 10° N
Cosmos 2266 Rocket 4.4 14:45:17 10° N 14:51:07 48° ENE 14:51:47 46° E
Cosmos 841 Rocket 4.5 14:52:40 37° ENE 14:52:40 37° ENE 14:56:35 10° NE
Cosmos 2297 Rocket 3.7 15:05:08 25° E 15:05:08 25° E 15:09:07 10° NE
Cosmos 2322 4.1 14:59:31 10° NNW 15:05:07 54° ENE 15:05:53 50° E
Cosmos 2221 3.6 15:08:31 41° N 15:08:31 41° N 15:11:18 10° N
Aureole 1 Rocket 3.8 15:06:01 10° NNW 15:11:26 75° W 15:11:26 75° W
NOSS 3-4 (A) 4.2 15:09:44 10° NW 15:16:24 48° WSW 15:16:25 48° WSW
NOSS 3-4 (C) 4.2 15:10:20 10° NW 15:17:02 48° WSW 15:17:05 48° WSW
Meteor 1-11 Rocket 3.7 15:11:23 10° N 15:17:06 69° ENE 15:17:16 69° E
Cosmos 2142 Rocket 4.4 15:16:49 74° SW 15:17:18 79° W 15:23:36 10° N
Cosmos 2180 Rocket 4.3 15:17:13 77° SW 15:17:38 82° W 15:23:56 10° N
Cosmos 2360 Rocket 3.5 15:13:35 10° NW 15:17:20 27° W 15:17:20 27° W
Meteor 1-10 Rocket 4.2 15:20:13 79° ESE 15:20:20 80° E 15:26:16 10° NNE
Cosmos 372 Rocket 4.2 15:20:13 10° NNW 15:24:30 60° NW 15:24:30 60° NW
Cosmos 1937 Rocket 3.7 15:20:23 10° NNW 15:25:29 61° ENE 15:25:29 61° ENE
USA 234 4.2 15:20:38 10° NE 15:26:45 44° NNW 15:32:51 10° W
Cosmos 44 3.5 15:21:45 10° NNW 15:26:53 77° N 15:26:53 77° N
Cosmos 1812 Rocket 4.3 15:29:06 49° NNW 15:29:06 49° NNW 15:32:26 10° N
Cosmos 2219 Rocket 3.3 15:31:13 10° NW 15:35:06 31° W 15:35:06 31° W
IDEFIX/ARIANE 42P 4.3 15:35:54 10° NE 15:39:53 22° E 15:40:34 21° ESE
Meteor 1-27 Rocket 3.7 15:40:51 74° SE 15:41:11 77° E 15:47:01 10° NNE
GP-B 4.2 15:40:21 10° NNW 15:43:27 36° NW 15:43:27 36° NW
Cosmos 2322 Rocket 4.2 15:41:57 10° WNW 15:43:57 15° W 15:43:57 15° W
Lacrosse 4 Rocket 3.6 15:49:24 17° E 15:49:24 17° E 15:51:01 10° ENE
Cosmos 1898 Rocket 3.8 15:43:17 10° NNW 15:47:38 56° WNW 15:47:38 56° WNW
ACS3 Solar Sail 1.7 15:43:27 10° NNE 15:49:28 70° E 15:50:10 64° SE
RESURS DK-1 3.6 15:45:48 10° NNW 15:48:14 36° NNW 15:48:14 36° NNW
Meteor 2-4 Rocket 3.6 15:50:58 68° ESE 15:51:06 68° E 15:56:31 10° NNE
Cosmos 1842 Rocket 4.4 15:55:08 43° ENE 15:55:08 43° ENE 15:58:49 10° NNE
COSMOS 2428 2.7 15:53:19 10° NNW 15:58:48 68° W 15:58:48 68° W
Cosmos 2237 Rocket 2.6 15:57:44 10° NNW 16:03:22 58° ENE 16:05:26 37° ESE
ISS -1.3 16:05:12 21° ENE 16:05:12 21° ENE 16:06:44 10° ENE
Cosmos 1980 3.9 16:01:15 10° NNW 16:06:54 67° ENE 16:08:34 45° SE
Iridium 4 Rocket 3.5 16:08:26 76° SSE 16:08:54 87° E 16:14:38 10° N
Cosmos 2227 Rocket 3.0 16:12:56 35° SE 16:13:48 38° ESE 16:18:59 10° NE
BlueWalker 3 4.4 16:20:19 13° E 16:20:19 13° E 16:20:56 10° E
Meteor 2-10 Rocket 3.7 16:13:59 10° N 16:19:26 77° E 16:20:33 57° SSE
Meteor 2-11 Rocket 4.4 16:13:35 10° N 16:19:45 79° E 16:21:24 51° SSE
Cosmos 1553 Rocket 4.3 16:18:05 44° SSE 16:19:57 62° E 16:26:15 10° NNE
PSLV R/B 4.4 16:18:39 10° N 16:21:43 52° NNW 16:21:43 52° NNW
SeaSat 1 4.1 16:25:30 21° WNW 16:25:30 21° WNW 16:27:48 10° NW
In-Cosmos 22 4.4 16:27:39 48° SE 16:28:52 59° E 16:34:19 10° NNE
Meteor 1-18 Rocket 4.1 16:28:45 60° SSE 16:29:45 79° E 16:35:22 10° NNE
CZ-2C R/B 4.3 16:30:36 20° W 16:30:36 20° W 16:33:37 10° NW
NOSS 0 Rocket 4.0 16:26:05 10° NW 16:32:02 52° WSW 16:32:21 51° WSW
Cosmos 1655 Rocket 4.1 16:26:08 10° NNW 16:32:13 58° W 16:33:16 52° SW
Cosmos 1758 3.9 16:31:01 10° N 16:34:13 48° ENE 16:34:13 48° ENE
Cosmos 2263 Rocket 3.2 16:33:42 29° SE 16:35:16 35° ESE 16:40:17 10° NE
Nimbus 7 Rocket 4.4 16:30:56 10° NNE 16:37:02 83° ESE 16:38:42 51° S
CZ-2D R/B 4.3 16:34:07 10° NE 16:37:41 18° E 16:41:16 10° SE
Cosmos 1408 Rocket 4.2 16:34:20 10° N 16:38:30 48° ENE 16:39:24 41° ESE
Cosmos 1238 Rocket 4.4 16:40:24 23° NW 16:40:24 23° NW 16:42:45 10° NNW
Spot 1 4.3 16:36:09 10° N 16:40:38 60° WNW 16:40:52 59° W
MSX 3.8 16:37:19 10° NNE 16:43:07 78° ESE 16:44:47 48° S
SL-08 R/B 4.5 16:37:11 10° N 16:43:33 87° E 16:46:04 40° S
Cosmos 192 4.2 16:42:59 10° NNW 16:47:57 87° ENE 16:49:11 52° SSE
Cosmos 2297 Rocket 2.6 16:46:54 42° W 16:48:16 51° WNW 16:53:46 10° NNE
MINOTAUR IV R/B 4.4 16:48:12 75° SSE 16:48:31 81° ESE 16:53:00 10° NNE
Cosmos 1745 Rocket 4.4 16:46:39 10° N 16:52:42 58° E 16:57:01 20° SSE
ALOS 4.3 16:52:02 10° NE 16:55:25 20° E 16:58:14 12° SE
BREEZE-M DEB (TANK) 3.3 16:54:57 35° NW 16:56:01 60° NNE 17:02:37 10° ESE
Sich 1 3.1 16:53:03 10° NNW 16:56:50 56° WNW 16:56:50 56° WNW
Okean 3 Rocket 3.8 17:02:39 10° NNW 17:07:01 50° W 17:07:12 50° WSW
CZ-3 Stage 3 4.5 17:09:02 15° SSE 17:09:02 15° SSE 17:12:33 10° SE
Cosmos 1703 3.7 17:12:01 38° ESE 17:12:21 40° E 17:15:23 10° NNE
Cosmos 1417 Rocket 4.4 17:11:16 33° S 17:14:14 86° E 17:20:23 10° N
IDEFIX/ARIANE 42P 2.9 17:14:33 10° N 17:19:36 51° WNW 17:21:16 37° WSW
Cosmos 1500 Rocket 3.5 17:16:33 10° NNW 17:20:56 63° W 17:21:55 48° SSW
Lacrosse 4 Rocket 2.0 17:24:48 35° W 17:25:34 39° NW 17:29:24 10° NNE
Cosmos 2219 3.7 17:25:04 24° S 17:28:14 52° ESE 17:33:42 10° NE
Cosmos 1953 3.1 17:25:37 10° N 17:29:08 44° ENE 17:31:49 15° SSE
SL-16 R/B 2.3 17:25:19 10° NNW 17:31:02 80° ENE 17:36:44 10° SSE
ACS3 Solar Sail 3.3 17:26:55 10° NNW 17:31:12 21° WNW 17:33:39 16° W
DMSP B5D2-2 4.1 17:26:39 13° SSE 17:31:20 78° ENE 17:36:34 10° N
Cosmos 1125 Rocket 3.4 17:30:01 10° NNW 17:35:20 88° WSW 17:40:36 10° SSE
ADEOS Rocket 3.6 17:28:53 10° N 17:36:34 65° WNW 17:41:09 25° SW
USA 281 3.1 17:30:21 10° SSE 17:36:56 85° WSW 17:43:32 10° NNW
Cosmos 1151 Rocket 3.7 17:37:03 32° WSW 17:37:53 36° WNW 17:41:51 10° N
Cosmos 2315 Rocket 4.0 17:33:57 22° S 17:38:17 88° E 17:44:41 10° N
CRYOSAT 2 4.3 17:37:44 25° S 17:40:35 78° W 17:45:30 10° N
ISS -3.9 17:38:19 17° WNW 17:40:48 76° SW 17:44:09 10° SE
S3M 4.0 17:38:05 26° SSW 17:41:42 70° W 17:47:53 10° N
H-2A R/B 2.8 17:37:02 10° NNE 17:42:16 51° E 17:46:57 13° S
NOAA 11 4.3 17:41:28 10° N 17:46:51 63° WNW 17:49:53 26° SW
Cosmos 2237 Rocket 3.4 17:42:41 10° NW 17:46:55 22° W 17:47:11 22° WSW
Cosmos 1805 Rocket 4.4 17:43:46 10° NNW 17:47:32 30° W 17:48:13 28° WSW
Cosmos 1666 Rocket 3.7 17:43:28 10° N 17:47:56 75° E 17:52:16 10° SSE
FENGYUN 3A 4.4 17:45:23 10° N 17:50:22 39° WNW 17:52:58 24° WSW
Cosmos 1743 Rocket 3.8 17:46:58 10° NNW 17:51:07 46° W 17:52:48 30° SW
NOSS 2-2 (C) 3.9 17:52:59 23° S 17:54:31 36° ESE 17:57:22 10° NE
BlueWalker 3 2.0 17:53:57 32° W 17:55:23 61° NNW 17:58:55 10° NE
Resurs 1-4 Rocket 2.1 17:50:50 10° NNE 17:56:09 89° W 18:00:01 19° SSW
Cosmos 2227 Rocket 3.1 17:54:43 21° WSW 17:57:49 36° NW 18:03:03 10° N
Cosmos 773 Rocket 4.0 17:56:55 20° SSW 18:00:27 82° ESE 18:05:35 10° NNE
Cosmos 1340 Rocket 3.8 18:00:19 10° NW 18:03:27 25° W 18:03:58 24° WSW
ADEOS II 2.3 17:59:20 10° NNE 18:04:34 72° ESE 18:09:28 12° S
Meteor 1-21 4.4 18:02:53 11° S 18:08:23 77° E 18:14:01 10° NNE
Cosmos 1515 Rocket 4.4 18:05:47 10° S 18:10:02 51° E 18:14:21 10° NNE
Meteor 1-13 Rocket 4.3 18:08:51 18° SSW 18:12:57 61° WNW 18:18:35 10° N
Cosmos 1709 Rocket 4.4 18:10:00 10° NNW 18:15:45 43° W 18:21:05 12° SSW
Tiangong -1.6 18:15:39 26° SW 18:16:53 40° S 18:19:51 10° E
USA 81 4.1 18:12:34 10° NNW 18:17:46 61° W 18:22:55 10° S
CZ-2D R/B 2.2 18:12:45 10° N 18:18:05 66° WNW 18:22:43 14° SSW
Cosmos 2263 Rocket 3.0 18:15:22 17° WSW 18:19:05 38° NW 18:24:18 10° NNE
ARGOS 3.9 18:17:04 10° NNE 18:22:19 53° E 18:27:31 10° S
Cosmos 1943 3.3 18:17:22 10° NNW 18:23:02 79° ENE 18:28:38 10° SSE
Cosmos 1328 Rocket 4.0 18:22:16 17° SW 18:25:16 43° WNW 18:29:29 10° N
Meteor 1-16 Rocket 4.0 18:20:29 10° NNW 18:25:49 86° W 18:31:07 10° S
BREEZE-M DEB (TANK) 3.3 18:20:00 10° W 18:26:08 41° NNW 18:28:52 10° ENE
Envisat 3.7 18:23:59 10° N 18:28:41 39° WNW 18:32:33 14° SW
CENTAUR R/B 2.9 18:24:21 10° SSW 18:29:25 53° ESE 18:35:50 10° NE
H-2A R/B 2.6 18:27:02 11° SSW 18:30:09 38° W 18:33:31 10° NNW
IRIDIUM 106 4.4 18:26:50 10° N 18:32:05 82° E 18:37:19 10° S
ALOS 2.7 18:28:13 10° N 18:32:31 43° WNW 18:36:15 13° SW
Cosmos 2297 Rocket 4.5 18:32:12 10° NW 18:33:42 11° NW 18:35:14 10° NNW
Cosmos 1295 Rocket 4.5 18:28:32 10° N 18:34:50 82° W 18:41:01 10° S
Cosmos 2082 4.0 18:31:32 14° SW 18:36:20 56° WNW 18:41:53 10° NNE
H-2A R/B 3.1 18:33:50 10° NNE 18:37:35 40° E 18:41:19 10° S
Cosmos 2084 3.2 18:35:52 10° NW 18:40:00 78° SW 18:44:05 10° SSE
Meteor 1-12 Rocket 4.3 18:35:50 10° NNW 18:41:36 86° W 18:47:15 10° S
Cosmos 2154 Rocket 4.0 18:40:44 10° N 18:47:02 87° W 18:53:15 10° S
Cosmos 2298 Rocket 4.0 18:44:40 10° NNW 18:49:57 65° WSW 18:55:11 10° S
Cosmos 1844 Rocket 2.7 18:46:56 10° SSW 18:52:32 89° SE 18:58:10 10° NNE
Atlas Centaur 2 4.2 18:47:08 10° SW 18:53:24 25° SSE 18:59:37 10° ESE
AQUA 3.8 18:48:42 10° NNE 18:53:25 89° W 18:58:05 10° SSW
Cosmos 1470 Rocket 4.1 18:49:51 10° NNW 18:53:53 39° W 18:57:56 10° SSW
Cosmos 1400 Rocket 4.3 18:50:43 10° N 18:54:16 38° ENE 18:57:49 10° SE
Cosmos 2344 4.5 18:49:00 10° S 18:56:45 45° ESE 19:03:31 10° NE
Cosmos 2184 Rocket 4.0 18:51:16 10° NNW 18:57:24 67° W 19:03:28 10° S
Cosmos 2074 Rocket 4.1 18:51:58 10° NNW 18:58:10 64° W 19:04:20 10° S
Cosmos 1633 Rocket 4.3 18:55:41 10° NW 18:59:04 23° W 19:02:25 10° SW
NOSS 2-2 (E) 3.5 18:55:42 10° SSW 18:59:17 51° SE 19:02:17 10° NE
Okean 3 3.3 18:57:12 10° SSW 19:01:14 75° W 19:05:16 10° N
Cosmos 1933 Rocket 3.5 18:57:08 10° NNW 19:01:30 76° W 19:05:50 10° S
Okean 2 3.9 18:59:15 10° SW 19:02:47 35° WNW 19:06:20 10° N
Cosmos 1953 4.1 19:02:12 10° WNW 19:03:37 12° W 19:05:01 10° WSW
CZ-2C R/B 3.1 19:01:02 10° NNE 19:05:34 52° E 19:09:59 10° S
BREEZE-M DEB (TANK) 4.4 18:51:17 10° SW 19:07:32 56° SSE 19:11:43 10° ENE
BREEZE-M DEB (TANK) 4.0 19:07:47 10° W 19:20:26 56° N 19:23:48 10° E
